TimeMDT,TemperatureF,Dew PointF,Humidity,Sea Level PressureIn,VisibilityMPH,Wind Direction,Wind SpeedMPH,Gust SpeedMPH,PrecipitationIn,Events,Conditions,WindDirDegrees,DateUTC
12:17 AM,32.0,26.6,80,30.43,10.0,Calm,Calm,-,N/A,,Clear,0,2013-09-29 06:17:00
12:37 AM,30.2,26.6,86,30.43,10.0,Calm,Calm,-,N/A,,Clear,0,2013-09-29 06:37:00
12:57 AM,32.0,26.6,80,30.43,10.0,Calm,Calm,-,N/A,,Clear,0,2013-09-29 06:57:00
1:17 AM,32.0,24.8,75,30.43,10.0,Calm,Calm,-,N/A,,Clear,0,2013-09-29 07:17:00
1:37 AM,30.2,26.6,86,30.43,10.0,Calm,Calm,-,N/A,,Clear,0,2013-09-29 07:37:00
1:57 AM,30.2,26.6,86,30.43,10.0,Calm,Calm,-,N/A,,Clear,0,2013-09-29 07:57:00
2:17 AM,30.2,26.6,86,30.43,10.0,Calm,Calm,-,N/A,,Clear,0,2013-09-29 08:17:00
2:37 AM,30.2,26.6,86,30.43,10.0,Calm,Calm,-,N/A,,Clear,0,2013-09-29 08:37:00
2:57 AM,30.2,24.8,80,30.43,10.0,Calm,Calm,-,N/A,,Clear,0,2013-09-29 08:57:00
3:17 AM,32.0,23.0,69,30.43,10.0,SW,3.5,-,N/A,,Clear,220,2013-09-29 09:17:00
3:37 AM,32.0,23.0,69,30.42,10.0,Calm,Calm,-,N/A,,Clear,0,2013-09-29 09:37:00
3:57 AM,30.2,24.8,80,30.42,10.0,Calm,Calm,-,N/A,,Clear,0,2013-09-29 09:57:00
4:17 AM,30.2,24.8,80,30.42,10.0,Calm,Calm,-,N/A,,Clear,0,2013-09-29 10:17:00
4:37 AM,30.2,24.8,80,30.42,10.0,Calm,Calm,-,N/A,,Clear,0,2013-09-29 10:37:00
4:57 AM,32.0,23.0,69,30.41,10.0,Calm,Calm,-,N/A,,Clear,0,2013-09-29 10:57:00
5:17 AM,32.0,21.2,64,30.41,10.0,Calm,Calm,-,N/A,,Clear,0,2013-09-29 11:17:00
5:37 AM,32.0,21.2,64,30.41,10.0,Calm,Calm,-,N/A,,Clear,0,2013-09-29 11:37:00
5:57 AM,30.2,21.2,69,30.41,10.0,Calm,Calm,-,N/A,,Clear,0,2013-09-29 11:57:00
6:17 AM,32.0,21.2,64,30.41,10.0,Calm,Calm,-,N/A,,Clear,0,2013-09-29 12:17:00
6:36 AM,32.0,21.2,64,30.41,10.0,Calm,Calm,-,N/A,,Clear,0,2013-09-29 12:36:00
6:57 AM,32.0,21.2,64,30.42,10.0,Calm,Calm,-,N/A,,Clear,0,2013-09-29 12:57:00
7:17 AM,32.0,21.2,64,30.42,10.0,Calm,Calm,-,N/A,,Clear,0,2013-09-29 13:17:00
7:37 AM,32.0,21.2,64,30.43,10.0,Calm,Calm,-,N/A,,Clear,0,2013-09-29 13:37:00
7:57 AM,32.0,21.2,64,30.43,10.0,Calm,Calm,-,N/A,,Clear,0,2013-09-29 13:57:00
8:17 AM,33.8,21.2,60,30.42,10.0,Calm,Calm,-,N/A,,Clear,0,2013-09-29 14:17:00
8:37 AM,33.8,21.2,60,30.42,10.0,Calm,Calm,-,N/A,,Clear,0,2013-09-29 14:37:00
8:57 AM,35.6,21.2,56,30.43,10.0,Calm,Calm,-,N/A,,Clear,0,2013-09-29 14:57:00
9:17 AM,35.6,21.2,56,30.43,10.0,Calm,Calm,-,N/A,,Clear,0,2013-09-29 15:17:00
9:37 AM,37.4,23.0,56,30.44,10.0,SW,3.5,-,N/A,,Clear,230,2013-09-29 15:37:00
9:57 AM,39.2,21.2,49,30.44,10.0,Calm,Calm,-,N/A,,Clear,0,2013-09-29 15:57:00
10:17 AM,41.0,23.0,49,30.44,10.0,Calm,Calm,-,N/A,,Clear,0,2013-09-29 16:17:00
10:37 AM,42.8,24.8,49,30.43,10.0,Calm,Calm,-,N/A,,Clear,0,2013-09-29 16:37:00
10:57 AM,44.6,28.4,53,30.43,10.0,Calm,Calm,-,N/A,,Clear,0,2013-09-29 16:57:00
11:17 AM,46.4,28.4,50,30.42,10.0,Calm,Calm,-,N/A,,Clear,0,2013-09-29 17:17:00
11:37 AM,46.4,28.4,50,30.42,10.0,Calm,Calm,-,N/A,,Clear,0,2013-09-29 17:37:00
11:57 AM,46.4,28.4,50,30.41,10.0,SW,3.5,-,N/A,,Clear,220,2013-09-29 17:57:00
12:17 PM,50.0,30.2,47,30.41,10.0,Calm,Calm,-,N/A,,Clear,0,2013-09-29 18:17:00
12:37 PM,50.0,32.0,50,30.41,10.0,Calm,Calm,-,N/A,,Clear,0,2013-09-29 18:37:00
12:57 PM,48.2,32.0,54,30.40,10.0,Calm,Calm,-,N/A,,Clear,0,2013-09-29 18:57:00
1:17 PM,50.0,32.0,50,30.39,10.0,Calm,Calm,-,N/A,,Clear,0,2013-09-29 19:17:00
1:37 PM,50.0,32.0,50,30.39,10.0,Calm,Calm,-,N/A,,Clear,0,2013-09-29 19:37:00
1:44 PM,50.0,32.0,50,30.38,10.0,Calm,Calm,-,N/A,,Clear,0,2013-09-29 19:44:00
10:17 PM,37.4,26.6,65,30.36,10.0,Calm,Calm,-,N/A,,Mostly Cloudy,0,2013-09-30 04:17:00
10:37 PM,37.4,26.6,65,30.36,10.0,Calm,Calm,-,N/A,,Overcast,0,2013-09-30 04:37:00
10:57 PM,39.2,26.6,61,30.37,10.0,SW,3.5,-,N/A,,Overcast,220,2013-09-30 04:57:00
11:17 PM,37.4,26.6,65,30.38,10.0,Calm,Calm,-,N/A,,Scattered Clouds,0,2013-09-30 05:17:00
11:37 PM,39.2,24.8,56,30.37,10.0,Calm,Calm,-,N/A,,Overcast,0,2013-09-30 05:37:00
11:57 PM,39.2,24.8,56,30.35,10.0,Calm,Calm,-,N/A,,Mostly Cloudy,0,2013-09-30 05:57:00